Tracking 28790 objects as of 19-Apr-2024
HD Live streaming from Space Station
objects crossing your sky now

STARLINK-5660

Track STARLINK-5660 now!
10-day predictions
STARLINK-5660 is classified as:


NORAD ID: 55335
Int'l Code: 2023-013E
Perigee: 565.4 km
Apogee: 566.9 km
Inclination: 43.0 °
Period: 95.8 minutes
Semi major axis: 6937 km
RCS: Unknown
Launch date: January 26, 2023
Source: United States (US)
Launch site: AIR FORCE EASTERN TEST RANGE (AFETR)
Your satellite tracking list
Your tracking list is empty




NASA's NSSDC Master Catalog

Two Line Element Set (TLE):
1 55335U 23013E   24110.16554504  .00002582  00000-0  20608-3 0  9994
2 55335  43.0035  87.3091 0001087 266.3080  93.7638 15.02545296 68411
Source of the keplerian elements: AFSPC